Change the Weather History Date:

Tuesday, December 10, 2013

  Actual Average (KBDE) Record (KBDE)
Temperature  
Mean Temperature -12 °F -  
Max Temperature -2 °F 21 °F 43 °F (1990)
Min Temperature -22 °F 2 °F -35 °F (1977)
Degree Days  
Heating Degree Days 77    
Moisture  
Dew Point -18 °F    
Average Humidity 79    
Maximum Humidity 84    
Minimum Humidity 71    
Precipitation  
Precipitation 0.00 in - - ()
Sea Level Pressure  
Sea Level Pressure 29.92 in    
Wind  
Wind Speed 4 mph (WSW)    
Max Wind Speed 10 mph    
Max Gust Speed -    
Visibility 8 miles    
Events Snow    
Averages and records for this station are not official NWS values.
T = Trace of Precipitation, MM = Missing Value Source: NWS Daily Summary

Daily Weather History Graph

Daily Weather History Graph

Search for Another Location

Airport or City:

Trip Planner

Search our weather history database for the weather conditions in past years. The results will help you decide how hot, cold, wet, or windy it might be!

Date:

Astronomy

Dec. 10, 2013 Rise Set
Actual Time 7:57 AM CST 4:24 PM CST
Civil Twilight 7:21 AM CST 5:00 PM CST
Nautical Twilight 6:41 AM CST 5:40 PM CST
Astronomical Twilight 6:04 AM CST 6:17 PM CST
Moon 12:50 PM CST (12/10) 12:50 AM CST (12/10)
Length of Visible Light 9h 39m
Length of Day
8h 26m
Waxing Gibbous, 62% of the Moon is Illuminated
Dec 10
Waxing Gibbous
Dec 17
Full
Dec 25
Last Quarter
Jan 1
New
Jan 7
First Quarter

Hourly Weather History & Observations

Time (CST) Temp. Windchill Dew Point Humidity Pressure Visibility Wind Dir Wind Speed Gust Speed Precip Events Conditions
12:17 AM -11.2 °F - -16.6 °F 77% 29.78 in 7.0 mi Calm Calm - N/A   Overcast
12:36 AM -13.0 °F - -16.6 °F 84% 29.77 in 2.5 mi Calm Calm - N/A Snow Light Snow
12:56 AM -14.8 °F - -18.4 °F 84% 29.76 in 4.0 mi Calm Calm - N/A Snow Light Snow
1:17 AM -14.8 °F - -18.4 °F 84% 29.77 in 7.0 mi Calm Calm - N/A Snow Light Snow
1:36 AM -14.8 °F - -20.2 °F 77% 29.77 in 10.0 mi Calm Calm - N/A   Mostly Cloudy
1:56 AM -16.6 °F - -20.2 °F 84% 29.77 in 5.0 mi Calm Calm - N/A Snow Light Snow
2:17 AM -16.6 °F - -20.2 °F 84% 29.78 in 4.0 mi Calm Calm - N/A Snow Light Snow
2:36 AM -16.6 °F - -20.2 °F 84% 29.78 in 5.0 mi Calm Calm - N/A Snow Light Snow
2:56 AM -18.4 °F - -23.8 °F 76% 29.78 in 5.0 mi Calm Calm - N/A Snow Light Snow
3:17 AM -18.4 °F - -23.8 °F 76% 29.79 in 10.0 mi Calm Calm - N/A   Scattered Clouds
3:36 AM -20.2 °F -30.9 °F -25.6 °F 76% 29.79 in 10.0 mi SW 3.5 mph - N/A   Clear
3:56 AM -22.0 °F - -27.4 °F 76% 29.79 in 10.0 mi Calm Calm - N/A   Clear
4:17 AM -22.0 °F - -27.4 °F 76% 29.79 in 10.0 mi Calm Calm - N/A   Clear
4:36 AM -18.4 °F -28.9 °F -23.8 °F 76% 29.79 in 10.0 mi WSW 3.5 mph - N/A   Clear
4:56 AM -16.6 °F -31.3 °F -20.2 °F 84% 29.79 in 10.0 mi WSW 5.8 mph - N/A   Clear
5:16 AM -16.6 °F -31.3 °F -20.2 °F 84% 29.79 in 10.0 mi SW 5.8 mph - N/A   Clear
5:36 AM -16.6 °F -31.3 °F -20.2 °F 84% 29.79 in 10.0 mi SW 5.8 mph - N/A   Clear
5:56 AM -14.8 °F -34.6 °F -18.4 °F 84% 29.80 in 10.0 mi WSW 10.4 mph - N/A   Clear
6:16 AM -16.6 °F -35.7 °F -20.2 °F 84% 29.81 in 10.0 mi WSW 9.2 mph - N/A   Clear
6:36 AM -18.4 °F -31.4 °F -23.8 °F 76% 29.81 in 10.0 mi WSW 4.6 mph - N/A   Clear
6:56 AM -20.2 °F -37.3 °F -25.6 °F 76% 29.81 in 1.5 mi WSW 6.9 mph - N/A Snow Light Snow
7:16 AM -18.4 °F -35.1 °F -23.8 °F 76% 29.81 in 10.0 mi SW 6.9 mph - N/A Snow Light Snow
7:36 AM -20.2 °F -37.3 °F -23.8 °F 83% 29.80 in 10.0 mi WSW 6.9 mph - N/A   Scattered Clouds
7:56 AM -18.4 °F -35.1 °F -23.8 °F 76% 29.81 in 10.0 mi WSW 6.9 mph - N/A   Clear
8:16 AM -16.6 °F -32.9 °F -20.2 °F 84% 29.82 in 10.0 mi SW 6.9 mph - N/A   Clear
8:36 AM -16.6 °F -29.3 °F -20.2 °F 84% 29.82 in 10.0 mi WSW 4.6 mph - N/A   Clear
8:56 AM -16.6 °F -29.3 °F -20.2 °F 84% 29.83 in 10.0 mi SW 4.6 mph - N/A   Clear
9:16 AM -14.8 °F -30.8 °F -18.4 °F 84% 29.84 in 7.0 mi SW 6.9 mph - N/A   Scattered Clouds
9:36 AM -13.0 °F -27.0 °F -16.6 °F 84% 29.84 in 2.0 mi WSW 5.8 mph - N/A Snow Light Snow
9:56 AM -11.2 °F -24.8 °F -16.6 °F 77% 29.84 in 1.5 mi SW 5.8 mph - N/A Snow Light Snow
10:16 AM -9.4 °F -25.6 °F -14.8 °F 77% 29.85 in 3.0 mi SW 8.1 mph - N/A Snow Light Snow
10:36 AM -9.4 °F -26.8 °F -14.8 °F 77% 29.87 in 4.0 mi SW 9.2 mph - N/A Snow Light Snow
10:56 AM -7.6 °F -23.4 °F -13.0 °F 77% 29.88 in 10.0 mi SW 8.1 mph - N/A   Scattered Clouds
11:16 AM -7.6 °F -22.1 °F -13.0 °F 77% 29.88 in 10.0 mi SW 6.9 mph - N/A   Clear
11:36 AM -7.6 °F -24.6 °F -11.2 °F 84% 29.88 in 10.0 mi WSW 9.2 mph - N/A   Clear
11:56 AM -5.8 °F -21.2 °F -11.2 °F 77% 29.88 in 10.0 mi WSW 8.1 mph - N/A   Clear
12:16 PM -5.8 °F -23.4 °F -11.2 °F 77% 29.89 in 10.0 mi SW 10.4 mph - N/A   Clear
12:36 PM -5.8 °F -23.4 °F -11.2 °F 77% 29.89 in 10.0 mi SW 10.4 mph - N/A   Clear
12:56 PM -5.8 °F -23.4 °F -11.2 °F 77% 29.89 in 10.0 mi SW 10.4 mph - N/A   Clear
1:16 PM -4.0 °F -20.2 °F -11.2 °F 71% 29.89 in 10.0 mi SW 9.2 mph - N/A   Clear
1:36 PM -4.0 °F -19.0 °F -9.4 °F 78% 29.89 in 10.0 mi SW 8.1 mph - N/A   Clear
1:56 PM -2.2 °F -16.8 °F -9.4 °F 71% 29.90 in 10.0 mi SW 8.1 mph - N/A   Clear
2:16 PM -4.0 °F -14.6 °F -11.2 °F 71% 29.90 in 10.0 mi WSW 4.6 mph - N/A   Clear
2:36 PM -4.0 °F -14.6 °F -11.2 °F 71% 29.91 in 10.0 mi West 4.6 mph - N/A   Clear
2:56 PM -5.8 °F -19.9 °F -11.2 °F 77% 29.93 in 10.0 mi SW 6.9 mph - N/A   Clear
3:16 PM -5.8 °F -21.2 °F -11.2 °F 77% 29.94 in 10.0 mi WSW 8.1 mph - N/A   Clear
3:36 PM -5.8 °F -18.4 °F -11.2 °F 77% 29.94 in 4.0 mi WSW 5.8 mph - N/A   Haze
3:56 PM -5.8 °F -19.9 °F -11.2 °F 77% 29.95 in 7.0 mi WSW 6.9 mph - N/A   Scattered Clouds
4:16 PM -7.6 °F -23.4 °F -11.2 °F 84% 29.96 in 10.0 mi WSW 8.1 mph - N/A   Clear
4:36 PM -9.4 °F -24.3 °F -13.0 °F 84% 29.97 in 10.0 mi WSW 6.9 mph - N/A   Clear
4:56 PM -11.2 °F -23.0 °F -14.8 °F 84% 29.98 in 10.0 mi WSW 4.6 mph - N/A   Clear
5:16 PM -11.2 °F -26.4 °F -16.6 °F 77% 30.00 in 10.0 mi WSW 6.9 mph - N/A   Clear
5:36 PM -11.2 °F -29.0 °F -16.6 °F 77% 30.01 in 10.0 mi West 9.2 mph - N/A   Clear
5:56 PM -13.0 °F -31.3 °F -18.4 °F 77% 30.01 in 10.0 mi West 9.2 mph - N/A   Clear
6:16 PM -11.2 °F -26.4 °F -16.6 °F 77% 30.03 in 10.0 mi WSW 6.9 mph - N/A   Clear
6:36 PM -16.6 °F -32.9 °F -20.2 °F 84% 30.05 in 10.0 mi WSW 6.9 mph - N/A   Clear
6:56 PM -14.8 °F -33.5 °F -18.4 °F 84% 30.06 in 10.0 mi WSW 9.2 mph - N/A   Clear
7:16 PM -13.0 °F -31.3 °F -18.4 °F 77% 30.07 in 10.0 mi WSW 9.2 mph - N/A   Clear
7:36 PM -14.8 °F -33.5 °F -18.4 °F 84% 30.08 in 10.0 mi WSW 9.2 mph - N/A   Clear
7:56 PM -14.8 °F -30.8 °F -18.4 °F 84% 30.08 in 10.0 mi WSW 6.9 mph - N/A   Scattered Clouds
8:16 PM -14.8 °F -33.5 °F -18.4 °F 84% 30.09 in 10.0 mi West 9.2 mph - N/A   Clear
8:36 PM -14.8 °F -34.6 °F -18.4 °F 84% 30.11 in 10.0 mi WSW 10.4 mph - N/A   Clear
8:56 PM -16.6 °F -35.7 °F -20.2 °F 84% 30.12 in 10.0 mi West 9.2 mph - N/A   Clear
9:16 PM -18.4 °F -35.1 °F -22.0 °F 84% 30.13 in 5.0 mi WSW 6.9 mph - N/A Snow Light Snow
9:36 PM -18.4 °F -36.6 °F -23.8 °F 76% 30.14 in 10.0 mi West 8.1 mph - N/A   Clear
9:56 PM -20.2 °F -35.5 °F -23.8 °F 83% 30.16 in 3.0 mi SW 5.8 mph - N/A Snow Light Snow
10:16 PM -18.4 °F -35.1 °F -23.8 °F 76% 30.16 in 10.0 mi WSW 6.9 mph - N/A   Clear
10:36 PM -18.4 °F -35.1 °F -23.8 °F 76% 30.17 in 10.0 mi SW 6.9 mph - N/A   Clear
10:56 PM -18.4 °F -33.4 °F -23.8 °F 76% 30.18 in 4.0 mi SW 5.8 mph - N/A Snow Light Snow
11:16 PM -18.4 °F -36.6 °F -23.8 °F 76% 30.19 in 10.0 mi WSW 8.1 mph - N/A   Clear
11:36 PM -18.4 °F -36.6 °F -23.8 °F 76% 30.20 in 10.0 mi WSW 8.1 mph - N/A   Clear
11:56 PM -18.4 °F -36.6 °F -23.8 °F 76% 30.21 in 10.0 mi WSW 8.1 mph - N/A   Clear